Regional Weather Roundup
Issued by NWS

Home | Current Version | Previous Version | Graphics & Text | Print | Product List | Glossary On
Versions: 1 2 3 4 5 6 7 8 9 10 11 12 13 14 15 16 17 18 19 20 21 22 23 24 25 26 27 28 29 30 31 32 33 34 35 36 37 38 39 40 41 42 43 44 45 46 47 48 49 50
000
ASUS43 KIND 171309
RWRIN

WEATHER ROUNDUP FOR INDIANA
NATIONAL WEATHER SERVICE INDIANAPOLIS IN
900 AM EDT TUE OCT 17 2017

NOTE: "FAIR" INDICATES FEW OR NO CLOUDS BELOW 12,000 FEET WITH NO
SIGNIFICANT WEATHER AND/OR OBSTRUCTIONS TO VISIBILITY.

* - STATION DOES NOT REPORT WEATHER SUCH AS PRECIPITATION OR FOG.

+ - STATION NOT QUALITY CONTROLLED BY THE NATIONAL WEATHER SERVICE.
    USE DATA WITH CAUTION...ESPECIALLY DEWPOINT AND RELATIVE
    HUMIDITY OBSERVATIONS.

INZ001>003-010>013-019-020-171400-
NORTHWEST INDIANA

CITY           SKY/WX    TMP DP  RH WIND       PRES   REMARKS
GARY /AIRPORT/ PTCLDY    50  37  62 SW9       30.24S
KNOX *+        CLEAR     46  37  71 SW8       30.27R
LA PORTE +     CLEAR     45  39  81 SW9       30.26R
MICHIGAN CITY+ CLEAR     46  37  71 S10       30.24S
MONTICELLO +   CLEAR     46  38  74 SW8       30.30R
RENSSELAER +   PTCLDY    46  36  66 SW7       30.28S
VALPARAISO     CLEAR     47  40  76 SW9       30.26R

$$

LMZ046-743>745-171400-
SOUTHERN LAKE MICHIGAN

STATION/POSITION TIME  TEMP    WIND        PRES    WAVE
                       AIR SEA DIR/SP/G            HT
                 (UTC) (F)     (DEG/KT/KT) (MB)    (FT)
BURNS HARBOR     1240   49     190/ 15/ 18 1023.7S
MICHIGAN CITY    1240   49     180/ 13/ 16   N/A
5NW MICH CITY    1300   53 57  210/ 16/ 19   N/A     3

$$

INZ004-005-014>016-021>024-171400-
NORTH CENTRAL INDIANA

CITY           SKY/WX    TMP DP  RH WIND       PRES   REMARKS
ELKHART        SUNNY     46  39  76 SW9       30.25S
GOSHEN         SUNNY     46  38  73 SW14      30.26S
LOGANSPORT +   SUNNY     45  37  76 SW10      30.31S
SOUTH BEND     CLEAR     46  39  76 SW14      30.25S
WARSAW +       SUNNY     46  37  71 SW7       30.28R

$$

INZ006>009-017-018-025>027-171400-
NORTHEAST INDIANA

CITY           SKY/WX    TMP DP  RH WIND       PRES   REMARKS
AUBURN +       SUNNY     46  37  71 SW7       30.28S
FORT WAYNE     MOSUNNY   46  39  76 SW10      30.30S
HUNTINGTON +   SUNNY     47  38  71 SW7       30.30S
KENDALLVILLE + SUNNY     46  39  78 SW9       30.27S

$$

INZ028-029-035-036-043>045-051>053-171400-
WEST CENTRAL INDIANA

CITY           SKY/WX    TMP DP  RH WIND       PRES   REMARKS
CRAWFORDSVL +  SUNNY     45  39  81 S5        30.34
GREENCASTLE +  SUNNY     43  37  81 CALM      30.35S
LAFAYETTE      CLEAR     45  40  82 SW5       30.31F
TERRE HAUTE    CLEAR     42  38  85 CALM      30.36R

$$

INZ030>032-037>040-046>048-054>057-064-065-171400-
CENTRAL INDIANA

CITY           SKY/WX    TMP DP  RH WIND       PRES   REMARKS
CP ATTERBURY + SUNNY     37  37 100 CALM      30.37S
COLUMBUS       MOSUNNY   41  39  93 CALM      30.38R
FISHERS *+     SUNNY     45  45 100 SW6       30.35
FRANKFORT +    PTSUNNY   48  41  75 SW6       30.33S
GREENWOOD *+   MOSUNNY   46  43  90 S3        30.36S
INDIANAPOLIS   MOSUNNY   46  39  76 SW3       30.36R
-EAGLE CREEK   SUNNY     45  39  79 S3        30.34R
KOKOMO +       SUNNY     50  38  63 SW10      30.32S
MARION +       SUNNY     45  39  81 SW8       30.33S
MT COMFORT *+  SUNNY     43  43 100 S6        30.35R
SHELBYVILLE    SUNNY     46  40  79 CALM      30.35S
ZIONSVILLE +   MOSUNNY   45  38  75 SW6       30.34S

$$

INZ033-034-041-042-049-050-058-059-171400-
EAST CENTRAL INDIANA

CITY           SKY/WX    TMP DP  RH WIND       PRES   REMARKS
MUNCIE         SUNNY     49  37  63 SW7       30.33S
RICHMOND +     SUNNY     45  39  81 SW5       30.37R

$$

INZ060-061-067>069-081>083-085>088-171400-
SOUTHWEST INDIANA

CITY           SKY/WX    TMP DP  RH WIND       PRES   REMARKS
EVANSVILLE     SUNNY     43  40  89 CALM      30.39R
HUNTINGBURG +  SUNNY     40  40 100 CALM      30.39R
WASHINGTON +   SUNNY     42  40  94 CALM      30.37S

$$

INZ062-063-066-070>080-084-089>092-171400-
SOUTH CENTRAL AND SOUTHEAST INDIANA

CITY           SKY/WX    TMP DP  RH WIND       PRES   REMARKS
BEDFORD +      SUNNY     41  39  93 CALM      30.37S
BLOOMINGTON    SUNNY     41  38  89 CALM      30.37R
MADISON *+     SUNNY     41  41 100 CALM      30.41R
NORTH VERNON + SUNNY     39  37  93 CALM      30.38S
SEYMOUR +      SUNNY     41  41 100 CALM      30.39R FOG

$$




USA.gov is the U.S. government's official web portal to all federal, state and local government web resources and services.